Temperature
15 15 15 15 15 15 14 14 14 14 14 14 14 14 14 14 14 13 13 13 13 13 13 13 13 13 12 13 12 12 12 12 12 12 11 11 11 11 11 11 11 11 11
15 15 15 15 15 14 14 14 14 14 14 14 14 14 13 13 13 13 13 13 13 13 13 13 13 13 12 12 12 12 12 12 12 12 12 11 11 11 11 11 11 11 10
15 15 15 14 14 14 14 14 14 14 14 14 14 13 13 13 13 13 13 13 13 13 13 13 12 12 12 12 12 12 12 12 12 12 12 11 11 11 11 11 11 10 10
14 14 14 14 14 14 14 14 14 14 13 13 13 13 13 13 13 13 13 13 13 13 13 12 12 12 12 12 12 12 12 12 12 11 11 11 11 11 11 11 10 10 10
14 14 14 14 14 14 13 13 13 13 13 13 13 13 13 13 12 13 13 12 12 12 12 12 12 12 12 12 12 12 12 12 12 11 11 11 11 11 11 11 10 10 10
13 13 13 13 13 13 13 13 13 13 13 13 12 12 12 12 12 12 12 12 12 12 12 12 12 12 12 12 12 12 12 11 11 11 11 11 11 11 11 11 10 10 10
13 13 13 13 13 13 12 12 12 12 12 12 12 12 12 12 12 12 12 12 12 12 12 12 12 12 12 12 12 12 12 11 11 11 11 11 11 11 11 10 10 10 10
12 12 12 12 12 12 12 12 12 11 12 12 12 12 11 12 12 12 12 12 11 11 11 11 11 11 11 11 11 11 11 11 11 11 11 11 11 10 10 10 10 10 9
12 11 12 12 11 11 11 11 11 11 11 11 11 11 11 11 11 11 11 11 11 11 11 11 11 11 11 11 11 11 11 11 11 11 11 10 11 10 10 10 9 9 9
11 11 11 11 11 11 11 11 11 11 11 11 11 11 11 11 11 11 11 11 10 10 11 10 11 11 11 11 10 10 10 10 10 10 10 10 10 10 10 10 9 9 9
10 10 10 10 10 10 10 10 10 10 10 10 10 10 10 10 10 11 10 10 10 10 10 10 10 10 10 10 10 10 10 10 10 9 9 9 9 9 9 9 9 9 9
10 10 10 10 10 10 10 10 10 10 10 10 10 10 10 10 10 10 10 10 10 10 10 10 10 10 10 10 10 10 10 9 9 9 9 9 9 9 9 9 9 9 9
9 9 9 9 9 9 9 9 9 9 9 9 9 9 9 9 9 10 10 10 10 9 9 9 10 10 9 9 9 9 9 9 9 9 9 9 9 8 8 8 8 8 8
9 9 9 9 9 9 9 9 9 9 8 8 9 9 9 9 9 9 9 9 9 9 9 9 9 9 9 9 9 9 9 9 8 8 8 8 8 8 8 8 8 8 8
8 8 8 8 8 8 8 8 8 8 8 8 8 8 8 8 9 9 9 9 9 9 8 8 8 8 8 8 8 8 8 8 8 8 8 7 7 7 7 7 7 7 7
8 8 8 7 7 7 7 8 8 8 8 8 8 8 8 8 8 8 8 8 8 8 8 8 8 8 8 8 8 7 8 7 7 7 7 7 7 7 7 7 7 7 7
7 7 7 7 7 7 7 7 7 7 7 7 7 7 7 7 7 7 8 8 8 8 7 7 7 7 7 7 7 7 7 7 7 7 7 7 7 6 6 6 6 6 6
7 7 7 7 7 7 6 6 6 6 6 6 7 7 7 7 7 7 7 7 7 6 6 6 6 6 6 6 6 6 6 6 6 6 6 6 6 6 6 6 6 6 6
6 6 6 6 6 6 6 6 6 6 6 6 6 6 6 6 6 6 6 6 6 6 6 6 6 6 6 6 6 6 6 6 6 6 6 6 6 6 5 5 5 5 5
6 6 6 6 5 5 5 5 5 5 5 5 5 5 5 5 5 5 5 5 5 5 5 5 5 5 5 5 5 5 5 5 5 5 5 5 5 5 5 5 5 5 5
6 5 5 5 5 5 5 5 5 5 5 5 4 5 5 5 5 4 5 5 5 4 4 4 4 4 4 4 4 4 4 4 5 5 5 5 5 4 4 4 4 4 4
5 5 5 4 4 4 4 4 4 4 4 4 4 4 4 4 4 4 4 4 4 4 4 4 4 4 4 4 4 4 4 4 4 4 4 4 4 4 4 4 4 4 4
5 4 4 4 4 4 4 4 4 4 4 3 3 3 3 4 3 3 3 3 3 3 3 3 3 3 3 3 3 3 3 3 3 3 3 3 3 3 3 3 3 3 3
4 4 4 4 3 3 3 3 3 3 3 3 3 3 3 3 3 3 3 3 3 3 3 3 3 2 2 3 3 3 3 3 3 3 3 3 3 3 3 3 3 3 3
4 3 3 3 3 3 3 3 3 3 2 2 2 2 2 2 2 2 2 2 2 2 2 2 2 2 2 2 2 2 2 2 2 2 2 2 2 2 2 2 2 2 2
3 3 3 3 3 2 2 2 2 2 2 2 2 2 2 2 2 2 2 1 1 1 1 1 1 1 1 1 1 1 1 2 2 2 2 2 2 2 2 2 2 2 2
Wind_Speed
4 5 5 5 5 5 4 4 4 4 5 5 5 6 5 5 6 6 6 5 5 5 5 5 5 4 3 3 3 3 3 3 3 2 2 2 2 2 3 3 2 3 3
3 4 5 5 5 5 5 5 5 5 5 5 5 6 6 6 6 6 6 6 6 6 6 5 5 4 5 4 4 4 4 4 4 3 3 3 3 3 2 3 3 2 2
2 3 3 4 4 5 5 5 5 5 5 5 6 6 6 6 6 6 6 6 6 7 6 6 6 6 6 5 5 5 5 4 4 4 3 2 3 3 3 3 3 2 2
1 2 2 3 3 4 4 4 4 4 5 5 5 6 6 6 7 7 7 6 6 6 6 7 7 7 7 6 6 6 5 5 5 5 4 3 3 3 4 3 3 3 3
1 1 2 2 2 3 3 4 4 4 4 5 5 5 5 5 5 6 6 6 7 7 6 6 6 5 5 5 5 6 6 5 5 5 5 5 4 4 4 4 4 3 3
1 2 2 2 2 2 2 3 3 4 4 4 5 5 5 5 3 5 6 6 7 7 7 7 6 5 6 7 6 6 7 7 7 6 6 6 6 6 5 5 5 5 3
1 1 2 2 2 2 2 3 3 4 4 4 5 5 5 4 3 4 7 7 7 7 7 6 5 5 6 6 7 9 9 9 8 8 8 7 6 6 6 7 6 6 5
2 2 2 2 2 2 2 3 4 4 4 4 5 5 5 4 3 3 5 8 7 8 7 7 7 7 6 6 6 7 8 9 9 9 8 8 6 5 6 6 6 6 5
2 3 3 3 3 3 3 4 4 4 4 4 4 4 5 5 3 4 4 6 6 7 7 7 7 7 5 6 7 7 7 6 6 8 7 5 3 3 5 5 5 6 5
3 4 3 3 3 3 3 3 3 4 4 4 4 4 5 5 2 4 5 5 6 6 6 6 6 7 4 6 7 7 7 6 5 5 6 6 6 7 9 8 7 7 6
3 3 4 3 4 4 3 3 3 4 4 4 5 4 4 4 3 3 5 5 5 6 5 5 4 5 6 7 8 7 6 5 5 6 5 5 5 5 6 7 7 7 7
3 3 3 3 3 3 3 3 3 4 4 4 4 4 3 3 2 3 5 6 6 6 5 5 4 5 6 7 6 5 4 5 5 5 5 5 5 5 5 6 7 7 8
3 3 3 4 3 4 4 3 3 3 3 3 3 3 3 2 2 3 5 6 7 6 5 4 3 4 5 6 6 6 6 5 5 6 6 5 5 5 5 4 5 5 6
4 4 3 4 4 3 3 3 3 3 4 4 4 4 3 2 2 3 3 4 5 5 5 4 5 6 6 5 4 5 5 5 6 6 5 5 4 4 5 4 5 5 5
4 4 4 4 4 4 3 3 4 3 3 4 4 4 3 4 3 3 3 3 4 4 4 3 3 4 4 4 4 5 5 5 6 6 5 5 5 5 5 5 5 5 6
4 4 3 3 3 3 3 3 2 3 2 2 3 4 4 4 4 3 4 4 3 3 4 4 4 4 4 4 5 5 5 5 5 5 6 6 6 6 5 5 5 6 6
4 4 3 3 3 4 4 4 3 3 3 4 3 4 4 5 4 4 4 4 3 3 4 5 4 4 5 5 5 5 5 5 5 5 6 6 6 6 6 6 6 6 7
4 3 4 4 4 4 4 4 4 4 3 3 3 3 4 4 4 4 4 3 3 4 5 5 5 5 5 5 5 5 5 5 5 5 6 6 6 6 6 7 7 7 7
3 3 3 3 3 3 4 4 4 4 4 4 3 2 3 4 5 4 3 3 4 5 5 5 5 5 5 5 5 5 5 5 5 5 5 6 6 6 7 7 7 7 8
3 3 3 3 3 3 4 4 4 4 4 4 4 3 3 3 3 3 3 4 4 5 5 5 5 6 5 5 5 5 5 5 6 6 6 6 6 6 7 8 7 7 7
3 3 4 4 4 4 4 4 4 4 4 5 4 3 4 4 3 3 3 4 4 5 5 5 5 5 5 5 5 6 7 6 6 6 6 6 6 7 7 7 7 8 8
3 3 3 4 4 4 4 4 5 5 5 6 5 4 3 5 4 4 4 4 5 5 5 5 5 4 5 5 5 6 6 7 7 7 7 7 7 7 7 7 7 7 7
3 3 3 3 4 4 4 5 5 5 6 6 5 5 5 5 5 5 5 5 4 5 5 5 5 5 5 5 6 6 6 7 6 6 7 7 7 7 7 7 8 8 8
4 4 4 4 4 4 5 5 5 6 6 6 6 6 6 5 5 6 5 5 5 5 5 5 6 6 7 6 5 6 6 6 7 7 8 8 8 8 7 7 8 8 8
4 4 4 4 4 4 5 5 5 6 6 6 6 6 6 6 6 6 6 5 6 6 7 6 6 7 8 8 8 7 6 7 8 8 8 7 8 9 8 8 7 8 8
5 5 4 4 4 5 5 5 5 6 6 6 6 6 6 6 6 6 6 6 6 6 7 6 7 8 9 8 9 8 8 8 9 9 8 8 8 8 8 7 8 8 8
Wind_Direction
201 204 206 207 211 216 218 221 225 227 224 222 220 221 223 224 225 221 222 222 229 230 227 232 232 227 220 217 218 224 232 241 243 240 202 196 203 209 176 197 201 205 178
211 214 217 209 206 216 221 221 221 224 223 223 220 219 222 223 225 227 228 224 228 232 234 234 233 220 227 223 216 221 223 228 236 243 214 204 217 217 209 210 210 209 206
212 215 216 218 215 221 227 226 223 223 220 220 221 223 224 223 222 226 229 229 231 233 234 238 238 230 228 223 222 227 223 219 228 238 230 201 216 213 214 218 221 217 222
228 224 224 230 227 227 232 227 226 226 224 224 225 227 229 227 224 225 227 230 234 235 238 242 242 237 237 231 225 229 224 219 218 227 228 216 215 211 216 222 224 215 223
255 245 246 239 229 232 232 229 227 230 234 233 227 225 228 233 231 232 232 233 235 235 240 245 246 246 256 249 242 233 223 222 217 222 227 224 221 210 220 220 223 223 225
267 266 265 255 244 238 239 238 235 236 240 237 231 228 228 231 231 240 246 237 237 238 241 244 240 231 229 224 233 244 243 233 226 224 232 232 233 226 222 222 224 226 235
258 262 266 257 252 251 242 238 239 237 238 242 241 237 235 229 204 229 242 243 240 242 245 246 242 235 227 233 219 220 230 239 245 241 239 243 242 232 218 220 224 231 240
257 268 272 275 269 260 254 250 247 244 238 241 247 245 244 242 208 228 239 240 242 241 242 244 241 237 224 229 233 231 233 230 227 235 245 251 252 242 229 230 229 231 239
260 269 274 271 267 266 266 265 262 258 252 250 250 247 247 246 210 220 230 248 246 244 242 240 239 239 217 217 229 235 237 236 224 230 252 258 267 245 234 229 221 220 234
261 269 274 271 260 261 266 270 272 266 262 259 254 251 252 259 219 205 223 244 249 248 244 239 231 238 216 208 227 234 237 238 233 224 226 228 229 219 215 225 226 229 236
275 274 272 269 264 261 265 266 268 268 269 265 261 255 257 265 242 205 220 244 251 252 245 238 231 205 213 221 235 241 242 246 242 237 234 229 225 223 217 222 228 234 238
280 278 278 278 277 272 266 266 265 264 265 264 264 260 258 254 248 232 224 245 263 254 253 248 232 184 206 221 230 238 234 238 237 235 231 230 228 226 227 224 227 232 242
270 269 273 277 277 278 271 263 264 262 262 267 265 262 261 263 250 227 233 245 254 250 254 265 257 220 223 225 220 214 217 230 231 233 234 235 237 236 229 225 230 233 241
262 267 270 272 278 282 279 269 261 258 259 259 261 267 270 272 283 281 260 248 239 247 252 237 218 223 230 237 227 214 224 229 231 237 240 239 236 233 231 227 225 221 228
260 263 266 269 274 278 276 273 264 265 269 264 264 269 274 274 289 301 278 266 263 261 263 250 241 234 230 227 228 229 230 227 228 234 236 235 232 232 233 228 229 226 230
262 265 267 267 268 267 271 273 253 255 273 260 278 280 277 285 309 301 273 271 270 256 248 245 241 239 240 239 237 235 234 234 235 235 237 237 237 238 236 232 229 230 236
256 262 264 264 262 262 262 266 269 255 226 224 236 255 269 287 291 294 279 255 242 224 234 242 243 242 244 243 244 245 244 241 239 237 237 240 241 241 240 237 234 235 239
260 261 261 261 262 263 263 265 267 272 279 280 242 233 253 263 266 277 280 261 250 234 242 244 243 243 244 245 244 247 251 248 243 240 239 239 240 240 239 240 238 238 240
254 254 254 260 261 262 264 265 265 264 267 274 283 269 248 253 246 250 248 249 245 244 245 249 252 251 249 246 246 245 246 248 245 243 243 242 240 239 240 242 243 240 243
248 249 258 258 256 256 257 256 258 262 267 271 274 284 286 277 273 263 251 252 253 256 255 253 253 254 251 248 247 244 243 241 241 242 243 241 241 243 245 246 247 246 244
246 239 240 257 255 254 257 260 260 262 265 269 273 283 290 269 266 268 266 264 263 263 263 266 263 255 248 246 244 244 245 245 242 242 243 243 242 242 245 248 250 250 251
240 245 247 252 254 252 257 261 262 264 266 269 274 271 257 261 263 264 262 263 264 265 269 266 262 260 254 247 247 248 248 248 247 245 245 244 243 243 244 244 246 250 252
236 243 250 256 258 259 257 258 261 264 267 270 272 272 266 264 262 263 265 268 272 270 267 266 265 263 264 264 259 253 250 252 254 253 249 246 243 241 240 242 245 248 247
238 244 250 257 258 257 259 262 264 265 268 270 270 269 269 270 271 270 270 269 270 270 264 259 257 262 268 266 266 264 263 268 270 261 252 248 246 245 242 243 243 246 249
242 246 250 256 261 260 261 263 264 266 268 269 270 270 270 270 271 273 273 272 273 272 270 265 262 262 265 267 267 270 277 272 267 266 258 248 246 245 246 245 245 246 247
244 246 249 251 256 259 262 265 266 267 269 271 271 270 270 269 269 271 274 276 275 272 272 268 264 264 267 266 268 272 270 267 262 259 257 250 247 244 245 246 248 247 250
Height
1533 1534 1535 1536 1537 1538 1539 1540 1540 1541 1541 1542 1543 1543 1544 1544 1545 1545 1545 1546 1546 1547 1547 1547 1547 1547 1548 1548 1548 1548 1548 1549 1549 1549 1548 1547 1546 1546 1545 1545 1545 1544 1544
1531 1532 1533 1534 1534 1535 1536 1537 1537 1538 1538 1539 1540 1540 1541 1541 1542 1542 1543 1543 1544 1544 1545 1545 1545 1545 1545 1546 1546 1546 1546 1546 1547 1547 1546 1545 1545 1545 1544 1544 1544 1544 1543
1529 1530 1531 1531 1532 1532 1533 1534 1534 1535 1536 1536 1537 1537 1538 1538 1538 1539 1540 1540 1541 1541 1542 1542 1543 1543 1543 1543 1543 1544 1544 1544 1544 1544 1544 1543 1543 1543 1543 1542 1542 1542 1542
1527 1528 1528 1529 1529 1530 1530 1531 1532 1532 1532 1533 1533 1534 1534 1535 1535 1536 1537 1537 1538 1538 1539 1539 1540 1540 1540 1541 1541 1541 1541 1541 1541 1542 1542 1541 1541 1541 1540 1540 1540 1540 1540
1525 1526 1526 1526 1527 1527 1527 1528 1528 1529 1529 1529 1530 1530 1531 1531 1532 1533 1533 1534 1534 1535 1535 1536 1536 1536 1537 1537 1537 1538 1538 1538 1538 1538 1539 1539 1538 1538 1538 1538 1538 1538 1538
1523 1524 1524 1524 1524 1524 1524 1525 1525 1525 1526 1526 1526 1527 1527 1527 1528 1528 1529 1530 1530 1531 1531 1532 1532 1532 1532 1533 1533 1534 1535 1535 1535 1535 1535 1535 1535 1535 1535 1535 1535 1536 1535
1521 1521 1521 1521 1521 1521 1521 1522 1522 1522 1523 1523 1523 1523 1523 1524 1524 1524 1524 1525 1526 1527 1527 1527 1527 1527 1528 1529 1529 1529 1530 1530 1531 1532 1532 1532 1532 1532 1532 1532 1532 1532 1532
1518 1519 1519 1518 1518 1518 1518 1519 1519 1519 1519 1519 1519 1519 1520 1520 1520 1520 1520 1521 1521 1522 1522 1523 1523 1523 1523 1524 1524 1525 1525 1526 1526 1527 1528 1528 1529 1529 1529 1529 1529 1529 1529
1516 1516 1516 1515 1515 1515 1515 1515 1516 1516 1516 1516 1516 1515 1516 1516 1516 1516 1516 1516 1517 1517 1518 1518 1518 1518 1518 1519 1520 1520 1521 1521 1522 1522 1523 1523 1523 1524 1524 1524 1525 1525 1525
1513 1513 1513 1512 1512 1512 1512 1512 1512 1512 1512 1512 1512 1512 1512 1512 1512 1512 1512 1512 1512 1513 1512 1512 1513 1513 1514 1514 1515 1516 1516 1517 1517 1518 1518 1518 1518 1518 1519 1520 1520 1521 1521
1510 1510 1510 1509 1509 1509 1509 1508 1508 1509 1508 1508 1508 1508 1508 1508 1508 1508 1508 1508 1508 1508 1508 1508 1508 1508 1509 1510 1510 1511 1511 1512 1513 1513 1513 1513 1513 1513 1514 1514 1515 1516 1517
1507 1506 1506 1506 1506 1506 1505 1505 1505 1505 1504 1504 1504 1504 1503 1503 1503 1503 1504 1504 1504 1504 1504 1504 1504 1504 1504 1505 1506 1506 1507 1508 1508 1508 1508 1508 1508 1509 1509 1509 1510 1510 1511
1504 1503 1503 1503 1503 1502 1502 1501 1501 1501 1500 1500 1500 1500 1500 1500 1499 1499 1500 1500 1500 1500 1500 1500 1500 1500 1500 1501 1501 1502 1503 1503 1503 1503 1503 1504 1504 1504 1504 1504 1504 1505 1505
1500 1500 1500 1500 1499 1499 1498 1498 1497 1497 1496 1496 1496 1496 1495 1495 1495 1495 1495 1495 1496 1496 1495 1495 1495 1496 1496 1496 1497 1497 1498 1498 1498 1499 1499 1499 1499 1499 1499 1499 1499 1499 1500
1498 1497 1497 1496 1496 1495 1495 1494 1493 1493 1493 1492 1492 1492 1491 1491 1491 1491 1491 1491 1491 1491 1491 1491 1491 1491 1491 1492 1492 1493 1493 1493 1494 1494 1494 1495 1495 1495 1495 1495 1495 1495 1494
1494 1494 1493 1493 1492 1491 1491 1490 1489 1489 1488 1488 1487 1487 1486 1486 1486 1486 1486 1486 1486 1486 1487 1486 1486 1486 1487 1487 1488 1488 1488 1489 1489 1489 1489 1490 1490 1490 1490 1490 1490 1490 1489
1490 1490 1489 1489 1488 1488 1487 1486 1485 1485 1484 1483 1482 1482 1481 1481 1481 1481 1481 1481 1481 1481 1481 1481 1481 1481 1482 1482 1483 1483 1484 1484 1484 1484 1484 1484 1484 1485 1485 1485 1485 1484 1484
1485 1485 1485 1484 1484 1483 1483 1482 1481 1480 1480 1478 1478 1477 1476 1476 1476 1476 1476 1475 1475 1475 1475 1476 1476 1476 1477 1477 1477 1478 1478 1478 1479 1479 1479 1479 1479 1479 1479 1479 1479 1479 1479
1481 1481 1481 1480 1480 1479 1479 1478 1477 1476 1475 1474 1474 1473 1472 1472 1472 1472 1471 1471 1470 1470 1470 1471 1471 1471 1471 1472 1472 1472 1472 1473 1473 1473 1473 1473 1473 1474 1473 1474 1474 1474 1474
1477 1477 1476 1476 1475 1475 1475 1474 1473 1473 1472 1471 1470 1469 1468 1468 1467 1466 1466 1466 1465 1465 1465 1465 1465 1465 1465 1466 1466 1466 1466 1466 1467 1467 1467 1467 1467 1468 1468 1468 1468 1468 1468
1473 1473 1472 1472 1471 1471 1470 1470 1469 1468 1468 1467 1466 1465 1464 1463 1462 1462 1461 1461 1460 1460 1460 1459 1459 1459 1460 1460 1460 1460 1461 1461 1461 1461 1461 1461 1461 1461 1461 1461 1462 1462 1462
1469 1469 1468 1468 1467 1466 1466 1465 1465 1464 1463 1463 1462 1460 1459 1458 1458 1457 1457 1456 1455 1455 1454 1454 1454 1454 1454 1454 1454 1454 1455 1455 1455 1455 1454 1454 1454 1454 1455 1455 1455 1456 1456
1465 1464 1464 1463 1463 1462 1462 1461 1460 1460 1459 1458 1457 1456 1455 1454 1453 1452 1452 1451 1450 1449 1449 1448 1448 1448 1448 1448 1448 1448 1448 1448 1448 1448 1448 1448 1448 1448 1448 1448 1449 1449 1449
1460 1460 1460 1459 1458 1458 1457 1456 1456 1455 1454 1453 1452 1451 1450 1449 1448 1447 1447 1446 1445 1444 1443 1443 1442 1442 1442 1442 1442 1442 1442 1442 1442 1441 1442 1442 1442 1442 1442 1442 1442 1442 1443
1456 1455 1455 1454 1454 1453 1452 1452 1451 1450 1449 1448 1447 1446 1445 1444 1443 1442 1442 1441 1440 1439 1438 1437 1436 1436 1436 1436 1436 1436 1435 1435 1435 1435 1435 1435 1435 1435 1435 1435 1436 1436 1436
1451 1451 1450 1450 1449 1448 1447 1447 1446 1445 1444 1443 1442 1441 1440 1439 1438 1437 1436 1435 1434 1433 1432 1431 1431 1430 1430 1430 1430 1429 1429 1429 1428 1429 1429 1429 1429 1429 1429 1429 1429 1430 1430